Location: Canyon Rim
(40.8777°N, 111.8641°W)
Time: 08:03:56
(UTC+00:00)

X-37B - Pass Details

Date: 20 April 2021
Orbit: 386 x 389 km, 45.0° (Epoch: 08 May)

Event Time Altitude Azimuth Distance (km) Brightness Sun altitude
Exits shadow 12:10:41 - 287° (WNW) 1,970 3.7 -6.2°
Reaches altitude 10° 12:12:06 10° 294° (WNW) 1,414 3.0 -5.9°
Maximum altitude 12:15:06 37° 4° (N) 617 1.9 -5.4°
Drops below altitude 10° 12:18:05 10° 74° (ENE) 1,412 5.4 -4.8°
Sets 12:20:15 0° 83° (E) 2,265 6.5 -4.5°
